Dewpoint
65 64 64 64 64 64 63 63 63 63 63 63 63 63 63 64 64 64 65 65 65 65 65 64 65 65 66 66 66 66 65 65 64 64 63 63 63 63 63 63 63 64
64 64 65 64 64 64 63 63 63 63 63 63 63 64 64 64 65 65 64 64 65 64 64 65 64 64 65 65 65 65 65 64 64 64 63 63 63 63 63 63 63 63
64 64 64 64 64 63 63 63 63 63 63 63 63 64 64 65 64 64 64 64 64 64 64 64 64 65 65 65 65 65 65 64 64 64 64 63 63 63 63 63 63 63
64 64 64 64 64 63 63 63 63 63 63 63 63 64 64 65 64 63 64 65 64 64 64 64 64 64 65 65 65 65 65 64 64 64 63 63 63 63 63 63 63 63
63 63 63 64 63 63 63 63 63 63 63 63 63 64 65 65 64 64 64 64 64 64 64 64 64 64 65 65 65 65 64 64 64 64 63 63 63 63 63 63 63 63
63 63 63 63 64 63 63 62 62 63 63 63 63 64 64 64 64 64 64 64 64 64 64 64 64 64 64 65 65 65 64 64 64 64 63 62 63 63 63 63 63 63
62 62 62 63 63 63 63 63 62 63 63 63 64 64 64 64 64 64 64 64 64 65 64 64 64 64 65 65 65 65 64 64 64 63 62 62 62 62 63 63 63 63
61 62 63 63 63 63 63 63 62 62 63 63 63 63 64 64 64 64 64 64 64 64 64 64 64 64 64 65 65 65 64 64 63 63 62 62 62 62 62 63 63 62
61 62 63 63 63 62 62 62 62 62 63 63 63 63 64 64 64 64 64 64 64 64 64 64 64 64 64 64 64 64 64 64 63 63 63 62 62 62 62 62 62 62
61 61 62 63 63 62 62 62 63 62 63 63 63 63 63 64 64 64 64 64 64 64 64 64 64 64 63 64 64 64 64 64 63 63 63 62 62 62 62 62 62 62
61 62 61 62 62 63 63 62 62 62 63 63 63 63 63 63 64 64 64 64 64 64 64 64 64 64 63 63 64 64 64 64 64 63 63 63 63 63 63 62 62 62
61 62 62 61 62 62 62 63 63 62 62 63 63 63 63 63 63 64 64 64 64 64 64 64 64 64 64 63 64 64 64 64 64 64 64 63 63 63 63 63 62 62
59 62 62 62 62 62 62 62 62 63 62 62 63 63 63 63 63 63 64 64 64 64 64 64 64 64 64 64 64 64 64 64 64 64 64 64 63 63 63 63 63 63
59 60 61 61 62 62 62 62 62 62 62 62 62 62 62 62 63 63 63 64 64 64 64 64 64 64 64 64 64 64 64 64 64 64 64 64 64 63 64 63 63 63
59 60 60 61 62 61 61 62 62 62 62 62 62 62 62 62 63 63 63 63 64 64 64 64 64 64 65 64 64 64 64 64 64 64 64 64 64 63 63 63 63 63
58 60 60 60 61 61 61 61 61 62 62 62 62 62 62 62 62 63 63 63 63 64 64 64 64 65 64 61 61 64 64 64 64 64 64 64 64 63 63 63 63 63
57 58 59 60 60 60 61 61 61 61 62 62 62 62 62 62 62 63 63 63 63 63 63 64 64 65 59 53 53 57 64 64 64 64 64 64 64 63 63 63 63 63
56 56 57 58 59 60 60 60 61 61 61 62 62 61 62 62 62 62 63 63 63 63 63 63 64 62 54 51 51 51 57 64 64 64 64 64 64 64 64 63 63 62
54 54 55 56 57 59 59 60 60 60 61 61 61 62 62 61 62 62 62 63 63 63 63 63 63 58 51 51 49 49 50 60 65 64 64 64 64 64 64 64 63 62
52 53 53 55 56 58 59 59 59 60 60 61 61 61 61 61 62 62 62 62 63 63 63 63 63 59 51 50 49 48 47 51 64 64 64 64 64 64 64 64 64 63
50 51 52 53 55 56 57 57 58 59 59 60 60 61 61 61 61 61 62 62 62 63 63 63 63 56 51 49 48 48 47 49 62 64 64 64 64 64 64 64 64 64
50 50 51 52 54 54 55 55 56 57 58 59 60 60 61 62 62 62 62 62 62 62 63 62 63 54 50 49 48 47 47 54 59 63 64 64 64 64 64 64 64 64
49 49 51 51 53 53 52 53 54 55 57 58 59 59 60 60 61 61 62 62 62 62 62 62 63 57 49 48 48 47 48 56 59 61 63 64 64 64 64 64 64 64
49 50 50 51 51 52 52 53 53 54 55 57 58 58 58 59 60 61 62 62 62 62 62 62 62 60 50 47 47 46 52 58 59 60 62 63 64 64 64 64 64 65
48 49 49 50 50 51 52 52 52 53 55 56 57 58 59 59 60 61 62 62 62 62 62 62 62 60 52 47 46 45 50 59 60 61 61 62 63 63 64 64 64 64
48 51 50 50 49 50 51 52 53 53 53 54 55 56 57 59 59 60 61 61 61 61 61 62 62 62 59 48 46 45 46 57 60 61 60 61 62 63 63 63 63 63